Weather in Barda

Azerbaijan     40°23′01″N   47°07′27″E
temp.,
°C
wind,
m/s
gust,
m/s
humid.,
%
clouds,
%
prec.,
mm/h
press.,
hPa
HPBL,
m
4 march, thu
thu401:00+7nw712454 0.0 1021392
04:00+6wnw610542 0.0 1023259
07:00+5wnw46610 0.0 1026108
10:00+10w35410 0.0 10271217
13:00+11nw33310 0.0 10261574
16:00+13ese21280 0.0 10252044
19:00+9se58563 0.0 1025621
22:00+7se587138 0.0 1025395
5 march, fri
fri501:00+5ese357893 0.0 1023363
04:00+5sse237596 0.0 1022276
07:00+4n1179100 0.0 102122
10:00+7nnw3368100 0.0 1021501
13:00+10nnw344993 0.0 10181159
16:00+12nw344097 0.0 10171339
19:00+10n114535 0.0 101922
22:00+9ssw345718 0.0 102256
6 march, sat
sat601:00+6e12680 0.0 102232
04:00+4nnw12840 0.0 102222
07:00+5nw59500 0.0 1022160
10:00+11nw69330 0.0 1021486
13:00+16nw56230 0.0 1019801
16:00+18nw44180 0.0 1016963
19:00+14wnw34240 0.0 101637
22:00+12w34320 0.0 101731
7 march, sun
sun701:00+11wnw333459 0.0 101531
04:00+10wnw5113460 0.0 1013211
07:00+12wnw9172782 0.0 1014454
10:00+13wnw11152890 0.0 1014725
13:00+17nw10122430 0.0 10141236
16:00+18nw10122447 0.0 10141889
19:00+13wnw101332100 0.0 1017813
22:00+9s4549100 0.1 1021612
8 march, mon
mon801:00+6sse797199 0.1 1022517
04:00+4se597389 0.1 1022594
07:00+5se566897 0.0 1021661
10:00+5se466799 0.0 1021646
13:00+8se335695 0.0 10181043
16:00+8n015498 0.0 10161085
19:00+7wnw2264100 0.1 1016596
22:00+6sw1171100 0.1 101728